Back to catalog

STARLINK-32636

AliveCommunicationsVLEO
NORAD 62232·PAYLOAD·🇺🇸 United States

Launched Dec 5, 2024 from Vandenberg Space Force Base

Loading…

Next Passes (next 24 hours)

TLE

FreshSource: CelesTrak SupGP

Epoch: Sep 14, 2026, 14:38 UTC

1 62232C 24231Q   26257.61020833 -.00045346  00000+0 -13386-2 0  2575
2 62232  53.1600  61.4100 0001119  94.0692 240.8848 15.34439343    10

Track STARLINK-32636 in real time with AllMySat

Download on the App Store